This is the latest recevied weather packets stored in our database for station/object OE3APM-13. If no packets are shown the sender has not sent any weather packets the latest 10 day(s).
| Time | Temp. | Humidity | Pressure | Rain* | Wind** | Luminosity | Snow |
|---|---|---|---|---|---|---|---|
| 1788617221 | 21.11° C | 56% | 1020.9 hPa | 0 mm | - | 657 W/m² | - |
| 1788616921 | 20.56° C | 58% | 1020.8 hPa | 0 mm | - | 225 W/m² | - |
| 1788616621 | 20.56° C | 61% | 1020.8 hPa | 0 mm | - | 664 W/m² | - |
| 1788616319 | 20° C | 59% | 1020.9 hPa | 0 mm | - | 118 W/m² | - |
| 1788616012 | 20.56° C | 58% | 1020.9 hPa | 0 mm | - | 102 W/m² | - |
| 1788615709 | 20.56° C | 59% | 1021 hPa | 0 mm | - | 139 W/m² | - |
| 1788615404 | 20.56° C | 58% | 1021 hPa | 0 mm | - | 153 W/m² | - |
| 1788615103 | 20.56° C | 58% | 1020.9 hPa | 0 mm | - | 156 W/m² | - |
| 1788614803 | 20.56° C | 59% | 1021 hPa | 0 mm | - | 153 W/m² | - |
| 1788614502 | 21.11° C | 58% | 1021 hPa | 0 mm | - | 97 W/m² | - |
| 1788614202 | 21.11° C | 59% | 1021 hPa | 0 mm | - | 142 W/m² | - |
| 1788613902 | 21.11° C | 57% | 1020.9 hPa | 0 mm | - | 397 W/m² | - |
| 1788613603 | 21.67° C | 56% | 1021.1 hPa | 0 mm | - | 144 W/m² | - |
| 1788613315 | 22.22° C | 55% | 1021.1 hPa | 0 mm | - | 137 W/m² | - |
| 1788613004 | 22.22° C | 54% | 1021.2 hPa | 0 mm | - | 202 W/m² | - |
| 1788612701 | 22.22° C | 55% | 1021 hPa | 0 mm | - | 647 W/m² | - |
| 1788612431 | 22.22° C | 55% | 1021 hPa | 0 mm | - | 645 W/m² | - |
| 1788612104 | 22.22° C | 55% | 1021.2 hPa | 0 mm | - | 758 W/m² | - |
| 1788611802 | 22.22° C | 55% | 1021.2 hPa | 0 mm | - | 244 W/m² | - |
| 1788611502 | 22.22° C | 56% | 1021.2 hPa | 0 mm | - | 234 W/m² | - |
| 1788611202 | 22.22° C | 56% | 1021.2 hPa | 0 mm | - | 773 W/m² | - |
| 1788610902 | 22.22° C | 57% | 1021.1 hPa | 0 mm | - | 729 W/m² | - |
| 1788610600 | 22.22° C | 57% | 1021.1 hPa | 0 mm | - | 758 W/m² | - |
| 1788610294 | 22.22° C | 56% | 1021.1 hPa | 0 mm | - | 784 W/m² | - |
| 1788609988 | 21.67° C | 57% | 1021.2 hPa | 0 mm | - | 823 W/m² | - |
* Rain latest hour (hover to see other rain measurements)
** Current wind speed in m/s (hover to see current wind gust speed)